Weather History for Pittsburg, KS

Change the Weather History Date:

Thursday, August 8, 2013

  Actual Average (KJLN) Record (KJLN)
Temperature  
Mean Temperature 75 °F 81 °F  
Max Temperature 80 °F 92 °F 106 °F (1970)
Min Temperature 70 °F 70 °F 50 °F (1989)
Degree Days  
Heating Degree Days 0 0  
Month to date heating degree days 0  
Since 1 June heating degree days 5  
Since 1 July heating degree days 0  
Cooling Degree Days 10 16  
Month to date cooling degree days 128  
Year to date cooling degree days 1099  
Since 1 June cooling degree days 919  
Growing Degree Days 25 (Base 50)    
Moisture  
Dew Point 77 °F    
Average Humidity 97    
Maximum Humidity 100    
Minimum Humidity 86    
Precipitation  
Precipitation 0.05 in 0.10 in 1.07 in (2011)
Month to date precipitation 0.79  
Year to date precipitation 28.41  
Sea Level Pressure  
Sea Level Pressure 29.93 in    
Wind  
Wind Speed 5 mph (ENE)    
Max Wind Speed 10 mph    
Max Gust Speed 17 mph    
Visibility 10 miles    
Events Thunderstorm    
T = Trace of Precipitation, MM = Missing Value Source: NWS Daily Summary

Daily Weather History Graph

Daily Weather History Graph

Search for Another Location

Airport:

Trip Planner

Search our weather history database for the weather conditions in past years. The results will help you decide how hot, cold, wet, or windy it might be!

Date:

Astronomy

Aug. 08, 2013 Rise Set
Actual Time 6:29 AM CDT 8:19 PM CDT
Civil Twilight 6:00 AM CDT 8:47 PM CDT
Nautical Twilight 5:26 AM CDT 9:21 PM CDT
Astronomical Twilight 4:49 AM CDT 9:58 PM CDT
Moon 8:13 AM CDT (8/8) 9:02 PM CDT (8/8)
Length of Visible Light 14h 46m
Length of Day
13h 49m
Waxing Crescent, 3% of the Moon is Illuminated
Aug 8
Waxing Crescent
Aug 14
First Quarter
Aug 20
Full
Aug 28
Last Quarter
Sep 5
New

Hourly Weather History & Observations

Time (CDT) Temp. Heat Index Dew Point Humidity Pressure Visibility Wind Dir Wind Speed Gust Speed Precip Events Conditions
12:15 AM 76.1 °F - - N/A% 29.92 in 10.0 mi ENE 3.5 mph - N/A Thunderstorm Clear
12:35 AM 76.1 °F - - N/A% 29.92 in 10.0 mi Calm Calm - N/A   Clear
12:55 AM 76.1 °F - - N/A% 29.91 in 10.0 mi ENE 4.6 mph - N/A   Clear
1:15 AM 76.1 °F - - N/A% 29.90 in 10.0 mi NE 4.6 mph - N/A   Clear
1:35 AM 76.1 °F - - N/A% 29.90 in 10.0 mi ENE 4.6 mph - N/A Thunderstorm Thunderstorm
1:55 AM 76.1 °F - - N/A% - 10.0 mi ENE 4.6 mph - N/A   Clear
2:15 AM 76.1 °F - 76.1 °F 100% - 10.0 mi ESE 3.5 mph - N/A   Clear
2:35 AM 76.1 °F - - N/A% 29.90 in 10.0 mi East 4.6 mph - N/A Thunderstorm Clear
2:55 AM 76.1 °F - - N/A% 29.90 in 10.0 mi East 4.6 mph - N/A   Clear
3:15 AM 76.1 °F - - N/A% 29.89 in 10.0 mi East 6.9 mph - N/A   Scattered Clouds
3:35 AM 76.1 °F - - N/A% 29.88 in 10.0 mi East 6.9 mph - N/A   Scattered Clouds
3:55 AM 76.1 °F - 76.1 °F 100% 29.88 in 10.0 mi East 6.9 mph - N/A   Mostly Cloudy
4:15 AM 76.1 °F - - N/A% 29.87 in 10.0 mi East 5.8 mph - N/A   Scattered Clouds
4:35 AM 76.1 °F - - N/A% 29.88 in 10.0 mi ESE 4.6 mph - N/A   Clear
4:55 AM 76.1 °F - - N/A% 29.88 in 10.0 mi Calm Calm - N/A Thunderstorm Clear
5:15 AM 76.1 °F - - N/A% 29.91 in 10.0 mi SSE 4.6 mph - N/A   Scattered Clouds
5:35 AM 76.1 °F - - N/A% 29.93 in 10.0 mi SSW 9.2 mph - N/A   Overcast
5:55 AM 76.1 °F - - N/A% 29.96 in 7.0 mi SW 10.4 mph - N/A Thunderstorm Thunderstorm
6:15 AM 76.1 °F - - N/A% 29.95 in 7.0 mi SSW 6.9 mph - N/A   Overcast
6:35 AM 76.1 °F - - N/A% 29.98 in 5.0 mi WSW 6.9 mph - N/A Thunderstorm Overcast
6:55 AM 76.1 °F - - N/A% 29.99 in 5.0 mi West 4.6 mph - 0.01 in   Overcast
7:15 AM 75.9 °F - - N/A% 30.01 in 4.0 mi West 10.4 mph 17.3 mph N/A   Overcast
7:35 AM 73.8 °F - - N/A% 30.02 in 5.0 mi West 9.2 mph 16.1 mph N/A Thunderstorm Overcast
7:55 AM 72.7 °F - - N/A% 29.98 in 7.0 mi NNW 9.2 mph - N/A   Overcast
8:15 AM 71.2 °F - - N/A% 29.93 in 7.0 mi NE 9.2 mph - N/A   Overcast
8:35 AM 70.9 °F - - N/A% 29.91 in 10.0 mi NE 5.8 mph - N/A   Scattered Clouds
8:55 AM 72.0 °F - - N/A% 29.89 in 10.0 mi ENE 5.8 mph - N/A   Clear
9:15 AM 73.2 °F - - N/A% 29.89 in 10.0 mi Calm Calm - N/A   Clear
9:35 AM 74.7 °F - - N/A% 29.90 in 10.0 mi SSE 4.6 mph - N/A   Clear
9:55 AM 76.1 °F - 76.1 °F 100% 29.91 in 10.0 mi South 5.8 mph - N/A   Mostly Cloudy
10:15 AM 76.1 °F - 76.1 °F 100% 29.92 in 7.0 mi South 8.1 mph - N/A   Overcast
10:35 AM 76.1 °F - 76.1 °F 100% 29.92 in 7.0 mi SSE 6.9 mph - N/A   Overcast
10:55 AM 76.1 °F - 76.1 °F 100% 29.92 in 10.0 mi SE 5.8 mph - 0.01 in   Overcast
11:15 AM 76.1 °F - 76.1 °F 100% 29.93 in 10.0 mi SSW 4.6 mph - N/A   Overcast
11:35 AM 76.1 °F - 76.1 °F 100% 29.92 in 10.0 mi Calm Calm - N/A   Mostly Cloudy
11:55 AM 77.0 °F - 77.2 °F 100% 29.92 in 10.0 mi SE 4.6 mph - N/A   Scattered Clouds
12:15 PM 78.4 °F - 77.7 °F 98% 29.92 in 10.0 mi East 3.5 mph - N/A   Scattered Clouds
12:35 PM 78.4 °F - 77.0 °F 95% 29.92 in 10.0 mi ENE 4.6 mph - N/A   Mostly Cloudy
12:55 PM 78.4 °F - 76.6 °F 94% 29.93 in 10.0 mi NNE 5.8 mph - N/A   Overcast
1:15 PM 78.4 °F - 75.9 °F 92% 29.93 in 10.0 mi NE 5.8 mph - N/A   Overcast
1:35 PM 80.2 °F 86.0 °F 76.5 °F 88% 29.93 in 10.0 mi NE 6.9 mph - N/A   Mostly Cloudy
1:55 PM 78.8 °F - 76.3 °F 92% 29.93 in 10.0 mi North 3.5 mph - N/A   Mostly Cloudy
2:15 PM 78.4 °F - 75.7 °F 91% 29.93 in 10.0 mi NNE 4.6 mph - 0.01 in   Scattered Clouds
2:35 PM 78.4 °F - 73.9 °F 86% 29.93 in 10.0 mi NNE 4.6 mph - 0.01 in   Scattered Clouds
2:55 PM 78.4 °F - 74.3 °F 87% 29.94 in 10.0 mi North 4.6 mph - 0.01 in   Clear
3:15 PM 78.4 °F - 73.9 °F 86% 29.94 in 10.0 mi NNE 5.8 mph - N/A   Scattered Clouds
3:35 PM 78.4 °F - 75.0 °F 89% 29.94 in 10.0 mi NNE 4.6 mph - N/A   Scattered Clouds
3:55 PM 78.4 °F - 76.3 °F 93% 29.94 in 10.0 mi NNE 5.8 mph - N/A   Scattered Clouds
4:15 PM 78.4 °F - 77.4 °F 96% 29.94 in 10.0 mi NNE 4.6 mph - N/A   Clear
4:35 PM 78.4 °F - 77.7 °F 98% 29.94 in 10.0 mi NE 6.9 mph - N/A   Clear
4:55 PM 78.4 °F - 78.4 °F 100% 29.94 in 10.0 mi NNE 5.8 mph - N/A   Clear
5:15 PM 78.4 °F - 78.4 °F 100% 29.94 in 10.0 mi NE 9.2 mph - N/A   Scattered Clouds
5:35 PM 78.4 °F - 78.4 °F 100% 29.94 in 10.0 mi NNE 9.2 mph - N/A   Clear
5:55 PM 78.4 °F - 78.8 °F 100% 29.94 in 10.0 mi NNE 6.9 mph - N/A   Scattered Clouds
6:15 PM 78.4 °F - 77.5 °F 97% 29.93 in 10.0 mi NNE 9.2 mph - N/A   Scattered Clouds
6:35 PM 78.4 °F - 77.7 °F 98% 29.92 in 10.0 mi NNE 9.2 mph - 0.01 in   Mostly Cloudy
6:55 PM 78.4 °F - 78.6 °F 100% 29.92 in 10.0 mi ENE 8.1 mph - 0.01 in   Mostly Cloudy
7:15 PM 77.4 °F - 77.5 °F 100% 29.94 in 10.0 mi NE 5.8 mph - N/A   Mostly Cloudy
7:35 PM 76.1 °F - 76.1 °F 100% 29.93 in 10.0 mi NE 6.9 mph - N/A   Mostly Cloudy
7:55 PM 76.1 °F - 76.1 °F 100% 29.93 in 10.0 mi NE 5.8 mph - N/A   Scattered Clouds
8:15 PM 76.1 °F - 76.1 °F 100% 29.92 in 10.0 mi NE 5.8 mph - N/A   Mostly Cloudy
8:35 PM 76.1 °F - 76.1 °F 100% 29.93 in 10.0 mi NE 8.1 mph - N/A   Mostly Cloudy
8:55 PM 76.1 °F - 76.1 °F 100% 29.94 in 10.0 mi NE 4.6 mph - N/A   Scattered Clouds
9:15 PM 76.1 °F - - N/A% 29.95 in 10.0 mi ENE 4.6 mph - N/A   Scattered Clouds
9:35 PM 76.1 °F - - N/A% 29.97 in 10.0 mi NE 3.5 mph - N/A   Clear
9:55 PM 76.1 °F - - N/A% 29.98 in 10.0 mi ENE 5.8 mph - N/A   Clear
10:15 PM 76.1 °F - - N/A% 29.99 in 10.0 mi NE 4.6 mph - N/A   Scattered Clouds
10:35 PM 76.1 °F - - N/A% 29.98 in 10.0 mi NE 5.8 mph - N/A   Scattered Clouds
10:55 PM 76.1 °F - - N/A% 29.98 in 10.0 mi NE 9.2 mph - N/A   Scattered Clouds
11:15 PM 76.1 °F - - N/A% 29.96 in 10.0 mi ENE 6.9 mph - 0.01 in   Mostly Cloudy
11:35 PM 75.0 °F - - N/A% 29.97 in 10.0 mi NE 8.1 mph - 0.01 in   Scattered Clouds
11:55 PM 73.4 °F - - N/A% 29.98 in 10.0 mi ENE 6.9 mph - 0.01 in   Mostly Cloudy